Location: Noordwijk
(52.2400°N, 4.4500°E)
Time: 00:29:45
(UTC+00:00)

CAS-4B - Pass Details

Date: 14 December 2022
Orbit: 515 x 531 km, 43.0° (Epoch: 26 January)

Event Time Altitude Azimuth Distance (km) Brightness Sun altitude
Exits shadow 06:16:01 - 242° (WSW) 1,957 ? -12.5°
Reaches altitude 10° 06:16:50 10° 233° (SW) 1,770 ? -12.3°
Maximum altitude 06:18:52 14° 202° (SSW) 1,556 ? -12.0°
Drops below altitude 10° 06:20:55 10° 172° (S) 1,773 ? -11.8°
Sets 06:24:06 0° 146° (SE) 2,664 ? -11.3°
